,,,PA_Meas_PMT16A,,PR_Meas_QMR101_102,,RH_Meas_QMH101,,SR_Meas_QMS101,,TA_Meas_QMH101,,GenWind,,GenWind,
date,time,status,PA,status,PR,status,RH,status,SR,status,TA,status,DirAvg,status,SpdAvg,
2011-05-28, 00:00:04,VALID,1004.11,VALID,0,INVALID,163.693,VALID,0,VALID,24.4998,VALID,358,VALID,0,
2011-05-28, 00:01:04,VALID,1004.15,VALID,0,INVALID,163.693,VALID,0,VALID,24.459,VALID,358,VALID,0.248828,
2011-05-28, 00:02:04,VALID,1004.14,VALID,0,INVALID,163.685,VALID,0,VALID,24.4804,VALID,358,VALID,0.375391,
2011-05-28, 00:03:04,VALID,1004.17,VALID,0,INVALID,163.693,VALID,0,VALID,24.459,VALID,358,VALID,0.383594,
2011-05-28, 00:04:04,VALID,1004.13,VALID,0,INVALID,163.678,VALID,0,VALID,24.4609,VALID,358,VALID,0.342187,
2011-05-28, 00:05:04,VALID,1004.17,VALID,0,INVALID,163.693,VALID,0.100563,VALID,24.4396,VALID,358,VALID,0.441406,
2011-05-28, 00:06:04,VALID,1004.16,VALID,0,INVALID,163.693,VALID,0,VALID,24.4609,VALID,358,VALID,0.465234,
2011-05-28, 00:07:04,VALID,1004.17,VALID,0,INVALID,163.708,VALID,0.100563,VALID,24.4414,VALID,358,VALID,0.456641,
2011-05-28, 00:08:04,VALID,1004.17,VALID,0,INVALID,163.716,VALID,0,VALID,24.4628,VALID,358,VALID,0.389844,
2011-05-28, 00:09:04,VALID,1004.18,VALID,0,INVALID,163.739,VALID,0,VALID,24.422,VALID,358,VALID,0.0015625,
2011-05-28, 00:10:04,VALID,1004.17,VALID,0,INVALID,163.739,VALID,0,VALID,24.4414,VALID,358,VALID,0,
2011-05-28, 00:11:04,VALID,1004.16,VALID,0,INVALID,163.708,VALID,0.100563,VALID,24.422,VALID,358,VALID,0,
2011-05-28, 00:12:04,VALID,1004.18,VALID,0,INVALID,163.693,VALID,0,VALID,24.422,VALID,358,VALID,0,
2011-05-28, 00:13:04,VALID,1004.19,VALID,0,INVALID,163.693,VALID,0,VALID,24.4414,VALID,358,VALID,0,
2011-05-28, 00:14:04,VALID,1004.21,VALID,0,INVALID,163.701,VALID,0,VALID,24.4414,VALID,358,VALID,0,
2011-05-28, 00:15:04,VALID,1004.21,VALID,0,INVALID,163.708,VALID,0,VALID,24.422,VALID,358,VALID,0,
2011-05-28, 00:16:04,VALID,1004.19,VALID,0,INVALID,163.716,VALID,0,VALID,24.4414,VALID,358,VALID,0,
2011-05-28, 00:17:04,VALID,1004.22,VALID,0,INVALID,163.685,VALID,0,VALID,24.4414,VALID,358,VALID,0,
2011-05-28, 00:18:04,VALID,1004.24,VALID,0,INVALID,163.708,VALID,0.100563,VALID,24.3812,VALID,358,VALID,0,
2011-05-28, 00:19:04,VALID,1004.22,VALID,0,INVALID,163.701,VALID,0,VALID,24.4433,VALID,358,VALID,0,
2011-05-28, 00:20:04,VALID,1004.21,VALID,0,INVALID,163.731,VALID,0.100563,VALID,24.422,VALID,358,VALID,0,
2011-05-28, 00:21:04,VALID,1004.2,VALID,0,INVALID,163.723,VALID,0,VALID,24.4006,VALID,358,VALID,0,
2011-05-28, 00:22:04,VALID,1004.17,VALID,0,INVALID,163.716,VALID,0,VALID,24.4609,VALID,358,VALID,0,
2011-05-28, 00:23:04,VALID,1004.16,VALID,0,INVALID,163.701,VALID,0,VALID,24.4609,VALID,358,VALID,0.298438,
2011-05-28, 00:24:04,VALID,1004.16,VALID,0,INVALID,163.708,VALID,0,VALID,24.4396,VALID,358,VALID,0.478125,
2011-05-28, 00:25:04,VALID,1004.15,VALID,0,INVALID,163.701,VALID,0,VALID,24.4609,VALID,358,VALID,0.588281,
2011-05-28, 00:26:04,VALID,1004.12,VALID,0,INVALID,163.708,VALID,0.100563,VALID,24.4414,VALID,358,VALID,0.539063,
2011-05-28, 00:27:04,VALID,1004.12,VALID,0,INVALID,163.739,VALID,0,VALID,24.4025,VALID,358,VALID,0.579297,
2011-05-28, 00:28:04,VALID,1004.11,VALID,0,INVALID,163.708,VALID,0,VALID,24.422,VALID,358,VALID,0.456641,
2011-05-28, 00:29:04,VALID,1004.11,VALID,0,INVALID,163.723,VALID,0,VALID,24.4025,VALID,358,VALID,0.385938,
2011-05-28, 00:30:04,VALID,1004.09,VALID,0,INVALID,163.693,VALID,0,VALID,24.422,VALID,358,VALID,0.284766,
2011-05-28, 00:31:04,VALID,1004.1,VALID,0,INVALID,163.678,VALID,0,VALID,24.4433,VALID,358,VALID,0.282031,
2011-05-28, 00:32:04,VALID,1004.09,VALID,0,INVALID,163.708,VALID,0,VALID,24.422,VALID,358,VALID,0.424609,
2011-05-28, 00:33:04,VALID,1004.07,VALID,0,INVALID,163.693,VALID,0,VALID,24.422,VALID,358,VALID,0.269141,
2011-05-28, 00:34:04,VALID,1004.04,VALID,0,INVALID,163.701,VALID,0,VALID,24.422,VALID,358,VALID,0.387891,
2011-05-28, 00:35:04,VALID,1004.04,VALID,0,INVALID,163.708,VALID,0,VALID,24.4414,VALID,358,VALID,0.336719,
2011-05-28, 00:36:04,VALID,1004.05,VALID,0,INVALID,163.693,VALID,0,VALID,24.4609,VALID,358,VALID,0.342187,
2011-05-28, 00:37:04,VALID,1004.05,VALID,0,INVALID,163.708,VALID,0,VALID,24.4396,VALID,358,VALID,0.217578,
2011-05-28, 00:38:04,VALID,1003.99,VALID,0,INVALID,163.708,VALID,0,VALID,24.4396,VALID,358,VALID,0.114844,
2011-05-28, 00:39:04,VALID,1003.99,VALID,0,INVALID,163.678,VALID,0,VALID,24.4609,VALID,358,VALID,0.362891,
2011-05-28, 00:40:04,VALID,1003.98,VALID,0,INVALID,163.708,VALID,0,VALID,24.5017,VALID,358,VALID,0.283203,
2011-05-28, 00:41:04,VALID,1003.96,VALID,0,INVALID,163.708,VALID,0.100563,VALID,24.459,VALID,358,VALID,0.308984,
2011-05-28, 00:42:04,VALID,1003.92,VALID,0,INVALID,163.716,VALID,0,VALID,24.459,VALID,358,VALID,0.26875,
2011-05-28, 00:43:04,VALID,1003.92,VALID,0,INVALID,163.693,VALID,0,VALID,24.4822,VALID,358,VALID,0.29375,
2011-05-28, 00:44:04,VALID,1003.92,VALID,0,INVALID,163.685,VALID,0,VALID,24.4822,VALID,358,VALID,0.392969,
2011-05-28, 00:45:04,VALID,1003.9,VALID,0,INVALID,163.693,VALID,0,VALID,24.4804,VALID,347,VALID,0.567187,
2011-05-28, 00:46:04,VALID,1003.9,VALID,0,INVALID,163.701,VALID,0,VALID,24.5212,VALID,347,VALID,0.386328,
2011-05-28, 00:47:04,VALID,1003.88,VALID,0,INVALID,163.685,VALID,0,VALID,24.4804,VALID,350,VALID,0.604297,
2011-05-28, 00:48:04,VALID,1003.87,VALID,0,INVALID,163.693,VALID,0,VALID,24.5212,VALID,351,VALID,0.474219,
2011-05-28, 00:49:04,VALID,1003.84,VALID,0,INVALID,163.685,VALID,0,VALID,24.5212,VALID,350,VALID,0.671484,
2011-05-28, 00:50:04,VALID,1003.81,VALID,0,INVALID,163.678,VALID,0,VALID,24.5406,VALID,353,VALID,0.699609,
2011-05-28, 00:51:04,VALID,1003.8,VALID,0,INVALID,163.701,VALID,0,VALID,24.5406,VALID,355,VALID,0.533203,
2011-05-28, 00:52:04,VALID,1003.79,VALID,0,INVALID,163.723,VALID,0,VALID,24.5406,VALID,355,VALID,0.537891,
2011-05-28, 00:53:04,VALID,1003.78,VALID,0,INVALID,163.685,VALID,0,VALID,24.5212,VALID,355,VALID,0.597656,
2011-05-28, 00:54:04,VALID,1003.77,VALID,0,INVALID,163.716,VALID,0,VALID,24.4998,VALID,355,VALID,0.508984,
2011-05-28, 00:55:04,VALID,1003.77,VALID,0,INVALID,163.701,VALID,0,VALID,24.4998,VALID,355,VALID,0.577344,
2011-05-28, 00:56:04,VALID,1003.81,VALID,0,INVALID,163.716,VALID,0,VALID,24.4804,VALID,355,VALID,0.462891,
2011-05-28, 00:57:04,VALID,1003.78,VALID,0,INVALID,163.701,VALID,0,VALID,24.5212,VALID,355,VALID,0.557031,
2011-05-28, 00:58:04,VALID,1003.78,VALID,0,INVALID,163.693,VALID,0,VALID,24.5017,VALID,355,VALID,0.526563,
2011-05-28, 00:59:04,VALID,1003.79,VALID,0,INVALID,163.731,VALID,0,VALID,24.4804,VALID,355,VALID,0.331641,
2011-05-28, 01:00:04,VALID,1003.76,VALID,0,INVALID,163.693,VALID,0,VALID,24.4609,VALID,355,VALID,0.409375,
2011-05-28, 01:01:04,VALID,1003.79,VALID,0,INVALID,163.723,VALID,0,VALID,24.5017,VALID,355,VALID,0.353906,
2011-05-28, 01:02:04,VALID,1003.79,VALID,0,INVALID,163.693,VALID,0,VALID,24.5017,VALID,355,VALID,0.521484,
2011-05-28, 01:03:04,VALID,1003.79,VALID,0,INVALID,163.708,VALID,0,VALID,24.4804,VALID,355,VALID,0.513672,
2011-05-28, 01:04:04,VALID,1003.79,VALID,0,INVALID,163.708,VALID,0,VALID,24.4822,VALID,355,VALID,0.580859,
2011-05-28, 01:05:04,VALID,1003.79,VALID,0,INVALID,163.716,VALID,0,VALID,24.4822,VALID,355,VALID,0.396094,
2011-05-28, 01:06:04,VALID,1003.8,VALID,0,INVALID,163.685,VALID,0,VALID,24.4804,VALID,355,VALID,0.3625,
2011-05-28, 01:07:04,VALID,1003.81,VALID,0,INVALID,163.708,VALID,0,VALID,24.4822,VALID,355,VALID,0.423438,
2011-05-28, 01:08:04,VALID,1003.78,VALID,0,INVALID,163.685,VALID,0,VALID,24.4822,VALID,355,VALID,0.479297,
2011-05-28, 01:09:04,VALID,1003.78,VALID,0,INVALID,163.67,VALID,0,VALID,24.4822,VALID,355,VALID,0.511328,
2011-05-28, 01:10:04,VALID,1003.78,VALID,0,INVALID,163.701,VALID,0,VALID,24.5017,VALID,355,VALID,0.457031,
2011-05-28, 01:11:04,VALID,1003.76,VALID,0,INVALID,163.693,VALID,0,VALID,24.4804,VALID,355,VALID,0.457422,
2011-05-28, 01:12:04,VALID,1003.76,VALID,0,INVALID,163.716,VALID,0,VALID,24.4804,VALID,355,VALID,0.366016,
2011-05-28, 01:13:04,VALID,1003.71,VALID,0,INVALID,163.701,VALID,0,VALID,24.5017,VALID,355,VALID,0.369141,
2011-05-28, 01:14:04,VALID,1003.71,VALID,0,INVALID,163.708,VALID,0,VALID,24.4822,VALID,355,VALID,0.326562,
2011-05-28, 01:15:04,VALID,1003.67,VALID,0,INVALID,163.685,VALID,0,VALID,24.4804,VALID,355,VALID,0.391797,
2011-05-28, 01:16:04,VALID,1003.68,VALID,0,INVALID,163.678,VALID,0,VALID,24.5017,VALID,355,VALID,0.00585938,
2011-05-28, 01:17:04,VALID,1003.66,VALID,0,INVALID,163.662,VALID,0,VALID,24.5017,VALID,355,VALID,0,
2011-05-28, 01:18:04,VALID,1003.64,VALID,0,INVALID,163.723,VALID,0,VALID,24.5212,VALID,355,VALID,0.309375,
2011-05-28, 01:19:04,VALID,1003.61,VALID,0,INVALID,163.685,VALID,0,VALID,24.5017,VALID,355,VALID,0.365625,
2011-05-28, 01:20:04,VALID,1003.58,VALID,0,INVALID,163.685,VALID,0,VALID,24.5212,VALID,355,VALID,0.221875,
2011-05-28, 01:21:04,VALID,1003.57,VALID,0,INVALID,163.701,VALID,0,VALID,24.5212,VALID,355,VALID,0.0242187,
2011-05-28, 01:22:04,VALID,1003.54,VALID,0,INVALID,163.678,VALID,0,VALID,24.5212,VALID,355,VALID,0.438281,
2011-05-28, 01:23:04,VALID,1003.51,VALID,0,INVALID,163.685,VALID,0,VALID,24.5193,VALID,355,VALID,0.357812,
2011-05-28, 01:24:04,VALID,1003.5,VALID,0,INVALID,163.693,VALID,0,VALID,24.5212,VALID,355,VALID,0.366406,
2011-05-28, 01:25:04,VALID,1003.49,VALID,0,INVALID,163.693,VALID,0,VALID,24.5212,VALID,355,VALID,0.496875,
2011-05-28, 01:26:04,VALID,1003.48,VALID,0,INVALID,163.716,VALID,0,VALID,24.4998,VALID,355,VALID,0.375,
2011-05-28, 01:27:04,VALID,1003.46,VALID,0,INVALID,163.693,VALID,0,VALID,24.5017,VALID,355,VALID,0.473047,
2011-05-28, 01:28:04,VALID,1003.47,VALID,0,INVALID,163.693,VALID,0,VALID,24.5017,VALID,355,VALID,0.516406,
2011-05-28, 01:29:04,VALID,1003.47,VALID,0,INVALID,163.685,VALID,0,VALID,24.5017,VALID,355,VALID,0.438672,
2011-05-28, 01:30:04,VALID,1003.47,VALID,0,INVALID,163.716,VALID,0,VALID,24.5017,VALID,355,VALID,0.496094,
2011-05-28, 01:31:04,VALID,1003.47,VALID,0,INVALID,163.693,VALID,0,VALID,24.4804,VALID,355,VALID,0.336719,
2011-05-28, 01:32:04,VALID,1003.46,VALID,0,INVALID,163.693,VALID,0,VALID,24.4998,VALID,355,VALID,0.3125,
2011-05-28, 01:33:04,VALID,1003.48,VALID,0,INVALID,163.701,VALID,0,VALID,24.4998,VALID,355,VALID,0.446875,
2011-05-28, 01:34:04,VALID,1003.45,VALID,0,INVALID,163.693,VALID,0,VALID,24.4998,VALID,355,VALID,0.438281,
2011-05-28, 01:35:04,VALID,1003.44,VALID,0,INVALID,163.685,VALID,0,VALID,24.4998,VALID,355,VALID,0.438281,
2011-05-28, 01:36:04,VALID,1003.41,VALID,0,INVALID,163.701,VALID,0,VALID,24.4998,VALID,355,VALID,0.591016,
2011-05-28, 01:37:04,VALID,1003.44,VALID,0,INVALID,163.693,VALID,0,VALID,24.5212,VALID,355,VALID,0.442187,
2011-05-28, 01:38:04,VALID,1003.42,VALID,0,INVALID,163.701,VALID,0,VALID,24.4998,VALID,355,VALID,0.387891,
2011-05-28, 01:39:04,VALID,1003.41,VALID,0,INVALID,163.693,VALID,0,VALID,24.5193,VALID,355,VALID,0.488281,
2011-05-28, 01:40:04,VALID,1003.38,VALID,0,INVALID,163.701,VALID,0,VALID,24.5212,VALID,355,VALID,0.445313,
2011-05-28, 01:41:04,VALID,1003.37,VALID,0,INVALID,163.693,VALID,0,VALID,24.5425,VALID,355,VALID,0.466797,
2011-05-28, 01:42:04,VALID,1003.35,VALID,0,INVALID,163.67,VALID,0,VALID,24.4998,VALID,355,VALID,0.380469,
2011-05-28, 01:43:04,VALID,1003.33,VALID,0,INVALID,163.716,VALID,0,VALID,24.5193,VALID,355,VALID,0.378516,
2011-05-28, 01:44:04,VALID,1003.37,VALID,0,INVALID,163.693,VALID,0,VALID,24.5193,VALID,355,VALID,0.233594,
2011-05-28, 01:45:04,VALID,1003.36,VALID,0,INVALID,163.701,VALID,0,VALID,24.5193,VALID,355,VALID,0.406641,
2011-05-28, 01:46:04,VALID,1003.38,VALID,0,INVALID,163.716,VALID,0,VALID,24.5193,VALID,355,VALID,0.372656,
2011-05-28, 01:47:04,VALID,1003.36,VALID,0,INVALID,163.716,VALID,0,VALID,24.5193,VALID,355,VALID,0.422266,
2011-05-28, 01:48:04,VALID,1003.38,VALID,0,INVALID,163.685,VALID,0,VALID,24.5193,VALID,355,VALID,0.435547,
2011-05-28, 01:49:04,VALID,1003.38,VALID,0,INVALID,163.701,VALID,0,VALID,24.4998,VALID,355,VALID,0.544141,
2011-05-28, 01:50:04,VALID,1003.4,VALID,0,INVALID,163.693,VALID,0,VALID,24.5212,VALID,355,VALID,0.361328,
2011-05-28, 01:51:04,VALID,1003.41,VALID,0,INVALID,163.708,VALID,0,VALID,24.4998,VALID,355,VALID,0.464063,
2011-05-28, 01:52:04,VALID,1003.43,VALID,0,INVALID,163.716,VALID,0,VALID,24.5388,VALID,355,VALID,0.394141,
2011-05-28, 01:53:04,VALID,1003.41,VALID,0,INVALID,163.708,VALID,0,VALID,24.5388,VALID,355,VALID,0.455469,
2011-05-28, 01:54:04,VALID,1003.4,VALID,0,INVALID,163.701,VALID,0,VALID,24.5388,VALID,355,VALID,0.542578,
2011-05-28, 01:55:04,VALID,1003.38,VALID,0,INVALID,163.693,VALID,0,VALID,24.5582,VALID,355,VALID,0.345313,
2011-05-28, 01:56:04,VALID,1003.4,VALID,0,INVALID,163.678,VALID,0,VALID,24.5582,VALID,355,VALID,0.380469,
2011-05-28, 01:57:04,VALID,1003.42,VALID,0,INVALID,163.701,VALID,0,VALID,24.5777,VALID,355,VALID,0.433594,
2011-05-28, 01:58:04,VALID,1003.4,VALID,0,INVALID,163.701,VALID,0,VALID,24.5777,VALID,355,VALID,0.494141,
2011-05-28, 01:59:04,VALID,1003.39,VALID,0,INVALID,163.662,VALID,0,VALID,24.6185,VALID,355,VALID,0.294922,
2011-05-28, 02:00:04,VALID,1003.36,VALID,0,INVALID,163.685,VALID,0,VALID,24.5972,VALID,355,VALID,0.389062,
2011-05-28, 02:01:04,VALID,1003.38,VALID,0,INVALID,163.678,VALID,0,VALID,24.5972,VALID,355,VALID,0.566016,
2011-05-28, 02:02:04,VALID,1003.35,VALID,0,INVALID,163.723,VALID,0,VALID,24.5972,VALID,355,VALID,0.469141,
2011-05-28, 02:03:04,VALID,1003.32,VALID,0,INVALID,163.67,VALID,0,VALID,24.5972,VALID,355,VALID,0.541406,
2011-05-28, 02:04:04,VALID,1003.32,VALID,0,INVALID,163.693,VALID,0,VALID,24.6185,VALID,355,VALID,0.476563,
2011-05-28, 02:05:04,VALID,1003.3,VALID,0,INVALID,163.678,VALID,0,VALID,24.5972,VALID,355,VALID,0.422266,
2011-05-28, 02:06:04,VALID,1003.28,VALID,0,INVALID,163.701,VALID,0,VALID,24.5972,VALID,355,VALID,0.4375,
2011-05-28, 02:07:04,VALID,1003.3,VALID,0,INVALID,163.701,VALID,0,VALID,24.6185,VALID,355,VALID,0.49375,
2011-05-28, 02:08:04,VALID,1003.3,VALID,0,INVALID,163.716,VALID,0,VALID,24.5972,VALID,355,VALID,0.448438,
2011-05-28, 02:09:04,VALID,1003.29,VALID,0,INVALID,163.685,VALID,0,VALID,24.5972,VALID,355,VALID,0.452344,
2011-05-28, 02:10:04,VALID,1003.27,VALID,0,INVALID,163.708,VALID,0,VALID,24.599,VALID,355,VALID,0.477734,
2011-05-28, 02:11:04,VALID,1003.25,VALID,0,INVALID,163.716,VALID,0,VALID,24.5972,VALID,355,VALID,0.353516,
2011-05-28, 02:12:04,VALID,1003.23,VALID,0,INVALID,163.693,VALID,0,VALID,24.6185,VALID,355,VALID,0.422266,
2011-05-28, 02:13:04,VALID,1003.26,VALID,0,INVALID,163.708,VALID,0,VALID,24.5972,VALID,355,VALID,0.464453,
2011-05-28, 02:14:04,VALID,1003.25,VALID,0,INVALID,163.678,VALID,0,VALID,24.5972,VALID,355,VALID,0.632422,
2011-05-28, 02:15:04,VALID,1003.22,VALID,0,INVALID,163.701,VALID,0,VALID,24.5972,VALID,355,VALID,0.570703,
2011-05-28, 02:16:04,VALID,1003.21,VALID,0,INVALID,163.685,VALID,0,VALID,24.5972,VALID,355,VALID,0.575781,
2011-05-28, 02:17:04,VALID,1003.2,VALID,0,INVALID,163.678,VALID,0,VALID,24.5972,VALID,355,VALID,0.491016,
2011-05-28, 02:18:04,VALID,1003.18,VALID,0,INVALID,163.701,VALID,0,VALID,24.6166,VALID,355,VALID,0.667969,
2011-05-28, 02:19:04,VALID,1003.17,VALID,0,INVALID,163.685,VALID,0,VALID,24.6185,VALID,355,VALID,0.616406,
2011-05-28, 02:20:04,VALID,1003.15,VALID,0,INVALID,163.716,VALID,0,VALID,24.5972,VALID,355,VALID,0.566016,
2011-05-28, 02:21:04,VALID,1003.13,VALID,0,INVALID,163.678,VALID,0,VALID,24.5758,VALID,355,VALID,0.445313,
2011-05-28, 02:22:04,VALID,1003.12,VALID,0,INVALID,163.678,VALID,0,VALID,24.5972,VALID,355,VALID,0.516797,
2011-05-28, 02:23:04,VALID,1003.13,VALID,0,INVALID,163.678,VALID,0,VALID,24.6166,VALID,355,VALID,0.470313,
2011-05-28, 02:24:04,VALID,1003.09,VALID,0,INVALID,163.685,VALID,0,VALID,24.5972,VALID,355,VALID,0.330859,
2011-05-28, 02:25:04,VALID,1003.06,VALID,0,INVALID,163.701,VALID,0,VALID,24.5972,VALID,355,VALID,0.449609,
2011-05-28, 02:26:04,VALID,1003.07,VALID,0,INVALID,163.693,VALID,0,VALID,24.5758,VALID,355,VALID,0.419141,
2011-05-28, 02:27:04,VALID,1003.07,VALID,0,INVALID,163.708,VALID,0,VALID,24.5972,VALID,355,VALID,0.334766,
2011-05-28, 02:28:04,VALID,1003.03,VALID,0,INVALID,163.708,VALID,0,VALID,24.5972,VALID,355,VALID,0.380078,
2011-05-28, 02:29:04,VALID,1003.01,VALID,0,INVALID,163.701,VALID,0,VALID,24.5972,VALID,355,VALID,0.421094,
2011-05-28, 02:30:04,VALID,1003,VALID,0,INVALID,163.693,VALID,0,VALID,24.6185,VALID,355,VALID,0.425781,
2011-05-28, 02:31:04,VALID,1003,VALID,0,INVALID,163.662,VALID,0,VALID,24.5777,VALID,355,VALID,0.441016,
2011-05-28, 02:32:04,VALID,1003,VALID,0,INVALID,163.685,VALID,0,VALID,24.599,VALID,355,VALID,0.578906,
2011-05-28, 02:33:04,VALID,1002.96,VALID,0,INVALID,163.685,VALID,0,VALID,24.5796,VALID,355,VALID,0.483984,
2011-05-28, 02:34:04,VALID,1002.95,VALID,0,INVALID,163.693,VALID,0,VALID,24.5582,VALID,355,VALID,0.551172,
2011-05-28, 02:35:04,VALID,1002.96,VALID,0,INVALID,163.708,VALID,0,VALID,24.5582,VALID,355,VALID,0.699219,
2011-05-28, 02:36:04,VALID,1002.95,VALID,0,INVALID,163.701,VALID,0,VALID,24.5388,VALID,356,VALID,0.73125,
2011-05-28, 02:37:04,VALID,1002.93,VALID,0,INVALID,163.693,VALID,0,VALID,24.498,VALID,356,VALID,0.704297,
2011-05-28, 02:38:04,VALID,1002.95,VALID,0,INVALID,163.723,VALID,0,VALID,24.5193,VALID,356,VALID,0.648047,
2011-05-28, 02:39:04,VALID,1002.93,VALID,0,INVALID,163.678,VALID,0,VALID,24.4804,VALID,7,VALID,0.629297,
2011-05-28, 02:40:04,VALID,1002.91,VALID,0,INVALID,163.678,VALID,0,VALID,24.4998,VALID,7,VALID,0.506641,
2011-05-28, 02:41:04,VALID,1002.9,VALID,0,INVALID,163.678,VALID,0,VALID,24.4804,VALID,7,VALID,0.615625,
2011-05-28, 02:42:04,VALID,1002.87,VALID,0,INVALID,163.716,VALID,0,VALID,24.4804,VALID,7,VALID,0.592578,
2011-05-28, 02:43:04,VALID,1002.86,VALID,0,INVALID,163.678,VALID,0,VALID,24.4609,VALID,7,VALID,0.531641,
2011-05-28, 02:44:04,VALID,1002.84,VALID,0,INVALID,163.723,VALID,0,VALID,24.5017,VALID,7,VALID,0.436719,
2011-05-28, 02:45:04,VALID,1002.83,VALID,0,INVALID,163.716,VALID,0,VALID,24.4609,VALID,7,VALID,0.344922,
2011-05-28, 02:46:04,VALID,1002.81,VALID,0,INVALID,163.701,VALID,0,VALID,24.4414,VALID,7,VALID,0.172656,
2011-05-28, 02:47:04,VALID,1002.8,VALID,0,INVALID,163.693,VALID,0,VALID,24.4414,VALID,7,VALID,0.270703,
2011-05-28, 02:48:04,VALID,1002.76,VALID,0,INVALID,163.708,VALID,0,VALID,24.422,VALID,7,VALID,0.176953,
2011-05-28, 02:49:04,VALID,1002.77,VALID,0,INVALID,163.678,VALID,0,VALID,24.422,VALID,7,VALID,0.117188,
2011-05-28, 02:50:04,VALID,1002.73,VALID,0,INVALID,163.731,VALID,0,VALID,24.4025,VALID,7,VALID,0.162109,
2011-05-28, 02:51:04,VALID,1002.75,VALID,0,INVALID,163.701,VALID,0,VALID,24.4043,VALID,7,VALID,0,
2011-05-28, 02:52:04,VALID,1002.73,VALID,0,INVALID,163.693,VALID,0,VALID,24.3636,VALID,7,VALID,0,
2011-05-28, 02:53:04,VALID,1002.7,VALID,0,INVALID,163.731,VALID,0,VALID,24.3849,VALID,7,VALID,0,
2011-05-28, 02:54:04,VALID,1002.71,VALID,0,INVALID,163.723,VALID,0,VALID,24.3654,VALID,7,VALID,0,
2011-05-28, 02:55:04,VALID,1002.7,VALID,0,INVALID,163.708,VALID,0,VALID,24.3441,VALID,7,VALID,0,
2011-05-28, 02:56:04,VALID,1002.68,VALID,0,INVALID,163.701,VALID,0,VALID,24.3459,VALID,7,VALID,0,
2011-05-28, 02:57:04,VALID,1002.66,VALID,0,INVALID,163.693,VALID,0,VALID,24.2857,VALID,7,VALID,0,
2011-05-28, 02:58:04,VALID,1002.66,VALID,0,INVALID,163.701,VALID,0,VALID,24.307,VALID,7,VALID,0,
2011-05-28, 02:59:04,VALID,1002.65,VALID,0,INVALID,163.716,VALID,0,VALID,24.2857,VALID,7,VALID,0,
2011-05-28, 03:00:04,VALID,1002.63,VALID,0,INVALID,163.716,VALID,0,VALID,24.2468,VALID,7,VALID,0,
2011-05-28, 03:01:04,VALID,1002.64,VALID,0,INVALID,163.716,VALID,0,VALID,24.2273,VALID,7,VALID,0,
2011-05-28, 03:02:04,VALID,1002.63,VALID,0,INVALID,163.731,VALID,0,VALID,24.2078,VALID,7,VALID,0.287891,
2011-05-28, 03:03:04,VALID,1002.62,VALID,0,INVALID,163.723,VALID,0,VALID,24.2078,VALID,7,VALID,0.166797,
2011-05-28, 03:04:04,VALID,1002.64,VALID,0,INVALID,163.723,VALID,0,VALID,24.1884,VALID,7,VALID,0.145703,
2011-05-28, 03:05:04,VALID,1002.65,VALID,0,INVALID,163.723,VALID,0,VALID,24.1689,VALID,7,VALID,0.129688,
2011-05-28, 03:06:04,VALID,1002.62,VALID,0,INVALID,163.723,VALID,0,VALID,24.1689,VALID,7,VALID,0,
2011-05-28, 03:07:04,VALID,1002.61,VALID,0,INVALID,163.701,VALID,0,VALID,24.13,VALID,7,VALID,0.419922,
2011-05-28, 03:08:04,VALID,1002.62,VALID,0,INVALID,163.716,VALID,0.100563,VALID,24.1105,VALID,7,VALID,0.245312,
2011-05-28, 03:09:04,VALID,1002.61,VALID,0,INVALID,163.746,VALID,0.100563,VALID,24.091,VALID,7,VALID,0.178906,
2011-05-28, 03:10:04,VALID,1002.64,VALID,0,INVALID,163.723,VALID,0,VALID,24.0716,VALID,7,VALID,0.149609,
2011-05-28, 03:11:04,VALID,1002.61,VALID,0,INVALID,163.716,VALID,0,VALID,24.0521,VALID,7,VALID,0.361719,
2011-05-28, 03:12:04,VALID,1002.61,VALID,0,INVALID,163.731,VALID,0,VALID,24.0326,VALID,7,VALID,0.321484,
2011-05-28, 03:13:04,VALID,1002.59,VALID,0,INVALID,163.746,VALID,0.100563,VALID,24.0308,VALID,7,VALID,0.205859,
2011-05-28, 03:14:04,VALID,1002.58,VALID,0,INVALID,163.723,VALID,0,VALID,24.0308,VALID,7,VALID,0.25625,
2011-05-28, 03:15:04,VALID,1002.62,VALID,0,INVALID,163.701,VALID,0,VALID,24.0326,VALID,7,VALID,0.170703,
2011-05-28, 03:16:04,VALID,1002.61,VALID,0,INVALID,163.731,VALID,0,VALID,24.0132,VALID,7,VALID,0.194141,
2011-05-28, 03:17:04,VALID,1002.61,VALID,0,INVALID,163.731,VALID,0,VALID,24.0132,VALID,7,VALID,0.10625,
2011-05-28, 03:18:04,VALID,1002.61,VALID,0,INVALID,163.701,VALID,0.100563,VALID,23.9724,VALID,7,VALID,0.0273438,
2011-05-28, 03:19:04,VALID,1002.61,VALID,0,INVALID,163.754,VALID,0,VALID,23.9937,VALID,7,VALID,0,
2011-05-28, 03:20:04,VALID,1002.63,VALID,0,INVALID,163.739,VALID,0,VALID,24.0132,VALID,7,VALID,0.248437,
2011-05-28, 03:21:04,VALID,1002.63,VALID,0,INVALID,163.708,VALID,0,VALID,23.9937,VALID,7,VALID,0.382422,
2011-05-28, 03:22:04,VALID,1002.64,VALID,0,INVALID,163.739,VALID,0,VALID,24.0132,VALID,7,VALID,0.207422,
2011-05-28, 03:23:04,VALID,1002.66,VALID,0,INVALID,163.731,VALID,0,VALID,24.0326,VALID,7,VALID,0.0722656,
2011-05-28, 03:24:04,VALID,1002.64,VALID,0,INVALID,163.731,VALID,0,VALID,24.0308,VALID,7,VALID,0.230469,
2011-05-28, 03:25:04,VALID,1002.63,VALID,0,INVALID,163.746,VALID,0,VALID,24.0132,VALID,7,VALID,0.00195313,
2011-05-28, 03:26:04,VALID,1002.66,VALID,0,INVALID,163.731,VALID,0,VALID,24.0132,VALID,7,VALID,0,
2011-05-28, 03:27:04,VALID,1002.67,VALID,0,INVALID,163.754,VALID,0.100563,VALID,24.0132,VALID,7,VALID,0.290234,
2011-05-28, 03:28:04,VALID,1002.71,VALID,0,INVALID,163.754,VALID,0,VALID,23.9742,VALID,7,VALID,0.162109,
2011-05-28, 03:29:04,VALID,1002.67,VALID,0,INVALID,163.739,VALID,0,VALID,23.9566,VALID,7,VALID,0.362891,
2011-05-28, 03:30:04,VALID,1002.72,VALID,0,INVALID,163.723,VALID,0,VALID,23.9353,VALID,7,VALID,0.43125,
2011-05-28, 03:31:04,VALID,1002.72,VALID,0,INVALID,163.723,VALID,0,VALID,23.9159,VALID,7,VALID,0.489453,
2011-05-28, 03:32:04,VALID,1002.71,VALID,0,INVALID,163.754,VALID,0.100563,VALID,23.9159,VALID,7,VALID,0.559375,
2011-05-28, 03:33:04,VALID,1002.71,VALID,0,INVALID,163.716,VALID,0.100563,VALID,23.9159,VALID,7,VALID,0.482422,
2011-05-28, 03:34:04,VALID,1002.7,VALID,0,INVALID,163.739,VALID,0,VALID,23.8964,VALID,7,VALID,0.363281,
2011-05-28, 03:35:04,VALID,1002.69,VALID,0,INVALID,163.754,VALID,0,VALID,23.8964,VALID,7,VALID,0.341797,
2011-05-28, 03:36:04,VALID,1002.72,VALID,0,INVALID,163.731,VALID,0.100563,VALID,23.9566,VALID,7,VALID,0.292188,
2011-05-28, 03:37:04,VALID,1002.71,VALID,0,INVALID,163.746,VALID,0,VALID,23.953,VALID,7,VALID,0.320313,
2011-05-28, 03:38:04,VALID,1002.71,VALID,0,INVALID,163.723,VALID,0,VALID,24.0132,VALID,7,VALID,0.344922,
2011-05-28, 03:39:04,VALID,1002.73,VALID,0,INVALID,163.731,VALID,0,VALID,24.0308,VALID,7,VALID,0.0199219,
2011-05-28, 03:40:04,VALID,1002.7,VALID,0,INVALID,163.723,VALID,0,VALID,24.091,VALID,7,VALID,0.286328,
2011-05-28, 03:41:04,VALID,1002.72,VALID,0,INVALID,163.731,VALID,0.100563,VALID,24.1105,VALID,7,VALID,0.307031,
2011-05-28, 03:42:04,VALID,1002.75,VALID,0,INVALID,163.746,VALID,0,VALID,24.0521,VALID,7,VALID,0.228906,